| time (UTC) | temp F | wind direction | speed MPH | gust MPH | rain 1hr in | rain 24hr in | rain mn in | humidity % | barometer mb |
| 20260504050630 | 65 | 152 | 4.0 | 7.0 | 0.00 | 0.00 | 0.00 | 66 | 1013.9 |
| 20260504050127 | 65 | 153 | 4.0 | 6.0 | 0.00 | 0.00 | 0.00 | 65 | 1013.8 |
| 20260504045624 | 65 | 163 | 4.0 | 9.0 | 0.00 | 0.00 | 0.00 | 64 | 1014.0 |
| 20260504045118 | 65 | 166 | 5.0 | 7.0 | 0.00 | 0.00 | 0.00 | 64 | 1014.1 |
| 20260504044617 | 65 | 164 | 3.0 | 6.0 | 0.00 | 0.00 | 0.00 | 64 | 1013.9 |
| 20260504044113 | 66 | 181 | 4.0 | 7.0 | 0.00 | 0.00 | 0.00 | 63 | 1014.2 |
| 20260504043610 | 66 | 183 | 4.0 | 6.0 | 0.00 | 0.00 | 0.00 | 63 | 1014.0 |
| 20260504043108 | 66 | 163 | 3.0 | 7.0 | 0.00 | 0.00 | 0.00 | 62 | 1014.1 |
| 20260504042605 | 66 | 183 | 3.0 | 7.0 | 0.00 | 0.00 | 0.00 | 62 | 1014.1 |
| 20260504042101 | 67 | 180 | 4.0 | 7.0 | 0.00 | 0.00 | 0.00 | 61 | 1014.0 |
| 20260504041557 | 67 | 180 | 8.0 | 10.0 | 0.00 | 0.00 | 0.00 | 60 | 1014.2 |
| 20260504041054 | 67 | 166 | 2.0 | 6.0 | 0.00 | 0.00 | 0.00 | 60 | 1014.2 |
| 20260504040551 | 68 | 149 | 3.0 | 8.0 | 0.00 | 0.00 | 0.00 | 59 | 1014.4 |
| 20260504040047 | 68 | 170 | 5.0 | 7.0 | 0.00 | 0.00 | 0.00 | 58 | 1014.2 |
| 20260504035544 | 68 | 168 | 3.0 | 10.0 | 0.00 | 0.00 | 0.00 | 58 | 1014.3 |
| 20260504035041 | 68 | 157 | 4.0 | 10.0 | 0.00 | 0.00 | 0.00 | 58 | 1014.3 |
| 20260504034539 | 68 | 171 | 5.0 | 11.0 | 0.00 | 0.00 | 0.00 | 57 | 1014.3 |
| 20260504034035 | 68 | 182 | 4.0 | 9.0 | 0.00 | 0.00 | 0.00 | 58 | 1014.4 |
| 20260504033533 | 68 | 169 | 5.0 | 9.0 | 0.00 | 0.00 | 0.00 | 57 | 1014.2 |
| 20260504033030 | 68 | 158 | 4.0 | 12.0 | 0.00 | 0.00 | 0.00 | 57 | 1014.2 |
| 20260504032527 | 68 | 155 | 3.0 | 8.0 | 0.00 | 0.00 | 0.00 | 57 | 1014.3 |
| 20260504032024 | 69 | 173 | 3.0 | 9.0 | 0.00 | 0.00 | 0.00 | 57 | 1014.4 |
| 20260504031521 | 69 | 174 | 3.0 | 7.0 | 0.00 | 0.00 | 0.00 | 56 | 1014.2 |
| 20260504031017 | 69 | 178 | 4.0 | 9.0 | 0.00 | 0.00 | 0.00 | 56 | 1014.0 |
| 20260504030515 | 69 | 164 | 6.0 | 10.0 | 0.00 | 0.00 | 0.00 | 56 | 1013.8 |
| 20260504030011 | 69 | 165 | 5.0 | 8.0 | 0.00 | 0.00 | 0.00 | 56 | 1013.8 |
| 20260504025508 | 69 | 148 | 4.0 | 11.0 | 0.00 | 0.00 | 0.00 | 55 | 1013.7 |
| 20260504025005 | 69 | 167 | 5.0 | 9.0 | 0.00 | 0.00 | 0.00 | 55 | 1013.7 |
| 20260504024502 | 69 | 151 | 4.0 | 11.0 | 0.00 | 0.00 | 0.00 | 55 | 1013.9 |
| 20260504023959 | 69 | 167 | 4.0 | 10.0 | 0.00 | 0.00 | 0.00 | 56 | 1014.0 |
| 20260504023455 | 69 | 162 | 6.0 | 9.0 | 0.00 | 0.00 | 0.00 | 55 | 1013.9 |
| 20260504022950 | 69 | 182 | 4.0 | 8.0 | 0.00 | 0.00 | 0.00 | 56 | 1013.8 |
| 20260504022447 | 69 | 153 | 4.0 | 11.0 | 0.00 | 0.00 | 0.00 | 56 | 1013.9 |
| 20260504021944 | 69 | 158 | 4.0 | 9.0 | 0.00 | 0.00 | 0.00 | 55 | 1013.9 |
| 20260504021441 | 69 | 176 | 3.0 | 7.0 | 0.00 | 0.00 | 0.00 | 56 | 1013.8 |
| 20260504020938 | 69 | 163 | 6.0 | 10.0 | 0.00 | 0.00 | 0.00 | 55 | 1013.9 |
| 20260504020435 | 69 | 159 | 9.0 | 9.0 | 0.00 | 0.00 | 0.00 | 54 | 1014.0 |
| 20260504015932 | 70 | 163 | 5.0 | 7.0 | 0.00 | 0.00 | 0.00 | 54 | 1013.8 |
| 20260504015427 | 70 | 167 | 4.0 | 8.0 | 0.00 | 0.00 | 0.00 | 54 | 1013.8 |
| 20260504014923 | 70 | 159 | 2.0 | 7.0 | 0.00 | 0.00 | 0.00 | 53 | 1013.9 |
| 20260504014420 | 70 | 175 | 5.0 | 7.0 | 0.00 | 0.00 | 0.00 | 52 | 1014.0 |
| 20260504013917 | 70 | 152 | 8.0 | 8.0 | 0.00 | 0.00 | 0.00 | 52 | 1014.0 |
| 20260504013415 | 71 | 168 | 3.0 | 9.0 | 0.00 | 0.00 | 0.00 | 51 | 1013.9 |
| 20260504012911 | 71 | 163 | 4.0 | 9.0 | 0.00 | 0.00 | 0.00 | 50 | 1013.7 |
| 20260504012409 | 71 | 177 | 7.0 | 8.0 | 0.00 | 0.00 | 0.00 | 49 | 1013.6 |
| 20260504011906 | 72 | 155 | 3.0 | 8.0 | 0.00 | 0.00 | 0.00 | 48 | 1013.5 |
| 20260504011403 | 72 | 180 | 3.0 | 10.0 | 0.00 | 0.00 | 0.00 | 47 | 1013.6 |
| 20260504010859 | 73 | 143 | 3.0 | 9.0 | 0.00 | 0.00 | 0.00 | 47 | 1013.8 |
| 20260504010355 | 73 | 151 | 3.0 | 9.0 | 0.00 | 0.00 | 0.00 | 46 | 1013.6 |
| 20260504005851 | 73 | 177 | 6.0 | 10.0 | 0.00 | 0.00 | 0.00 | 45 | 1013.8 |
| 20260504005348 | 74 | 172 | 8.0 | 13.0 | 0.00 | 0.00 | 0.00 | 44 | 1013.8 |
| 20260504004846 | 74 | 163 | 4.0 | 9.0 | 0.00 | 0.00 | 0.00 | 43 | 1013.6 |
| 20260504004343 | 75 | 163 | 3.0 | 10.0 | 0.00 | 0.00 | 0.00 | 43 | 1013.6 |
| 20260504003840 | 75 | 158 | 2.0 | 11.0 | 0.00 | 0.00 | 0.00 | 43 | 1013.8 |
| 20260504003336 | 75 | 146 | 5.0 | 13.0 | 0.00 | 0.00 | 0.00 | 42 | 1013.7 |
| 20260504002833 | 76 | 157 | 5.0 | 11.0 | 0.00 | 0.00 | 0.00 | 40 | 1013.7 |
| 20260504002330 | 76 | 171 | 3.0 | 10.0 | 0.00 | 0.00 | 0.00 | 41 | 1013.3 |
| 20260504001828 | 77 | 157 | 4.0 | 13.0 | 0.00 | 0.00 | 0.00 | 39 | 1013.7 |
| 20260504001325 | 77 | 189 | 2.0 | 14.0 | 0.00 | 0.00 | 0.00 | 39 | 1013.9 |
| 20260504000822 | 77 | 150 | 3.0 | 14.0 | 0.00 | 0.00 | 0.00 | 38 | 1013.9 |
| 20260504000319 | 78 | 180 | 4.0 | 20.0 | 0.00 | 0.00 | 0.00 | 38 | 1014.0 |
| 20260503235816 | 78 | 161 | 3.0 | 14.0 | 0.00 | 0.00 | 0.00 | 39 | 1013.8 |
| 20260503235313 | 78 | 168 | 6.0 | 17.0 | 0.00 | 0.00 | 0.00 | 37 | 1013.9 |
| 20260503234810 | 78 | 157 | 5.0 | 14.0 | 0.00 | 0.00 | 0.00 | 37 | 1013.9 |
| 20260503234303 | 79 | 175 | 8.0 | 14.0 | 0.00 | 0.00 | 0.00 | 37 | 1013.7 |
| 20260503233800 | 79 | 162 | 7.0 | 16.0 | 0.00 | 0.00 | 0.00 | 37 | 1013.7 |
| 20260503233255 | 80 | 168 | 6.0 | 10.0 | 0.00 | 0.00 | 0.00 | 37 | 1013.7 |
| 20260503232752 | 79 | 184 | 5.0 | 14.0 | 0.00 | 0.00 | 0.00 | 37 | 1013.9 |
| 20260503232250 | 79 | 172 | 4.0 | 11.0 | 0.00 | 0.00 | 0.00 | 36 | 1013.7 |
| 20260503231748 | 80 | 181 | 6.0 | 17.0 | 0.00 | 0.00 | 0.00 | 35 | 1013.9 |
| 20260503231245 | 80 | 176 | 9.0 | 16.0 | 0.00 | 0.00 | 0.00 | 34 | 1014.1 |
| 20260503230740 | 80 | 188 | 10.0 | 16.0 | 0.00 | 0.00 | 0.00 | 34 | 1014.1 |
| 20260503230237 | 80 | 166 | 5.0 | 11.0 | 0.00 | 0.00 | 0.00 | 36 | 1013.9 |
| 20260503225730 | 80 | 187 | 8.0 | 19.0 | 0.00 | 0.00 | 0.00 | 35 | 1014.1 |
| 20260503225230 | 80 | 169 | 7.0 | 15.0 | 0.00 | 0.00 | 0.00 | 35 | 1013.9 |
| 20260503224727 | 80 | 172 | 6.0 | 17.0 | 0.00 | 0.00 | 0.00 | 35 | 1014.1 |
| 20260503224225 | 81 | 165 | 6.0 | 14.0 | 0.00 | 0.00 | 0.00 | 35 | 1014.1 |
| 20260503223722 | 81 | 192 | 3.0 | 13.0 | 0.00 | 0.00 | 0.00 | 34 | 1014.0 |
| 20260503223220 | 81 | 193 | 4.0 | 13.0 | 0.00 | 0.00 | 0.00 | 35 | 1014.2 |
| 20260503222716 | 81 | 173 | 5.0 | 11.0 | 0.00 | 0.00 | 0.00 | 35 | 1013.8 |
| 20260503222214 | 82 | 118 | 2.0 | 6.0 | 0.00 | 0.00 | 0.00 | 36 | 1014.2 |
| 20260503221712 | 81 | 186 | 5.0 | 13.0 | 0.00 | 0.00 | 0.00 | 35 | 1014.4 |
| 20260503221209 | 81 | 194 | 4.0 | 15.0 | 0.00 | 0.00 | 0.00 | 35 | 1014.3 |
| 20260503220705 | 80 | 174 | 12.0 | 21.0 | 0.00 | 0.00 | 0.00 | 34 | 1014.3 |
| 20260503220202 | 80 | 168 | 8.0 | 20.0 | 0.00 | 0.00 | 0.00 | 34 | 1014.5 |
| 20260503215659 | 81 | 210 | 7.0 | 15.0 | 0.00 | 0.00 | 0.00 | 36 | 1014.5 |
| 20260503215156 | 81 | 215 | 3.0 | 13.0 | 0.00 | 0.00 | 0.00 | 36 | 1014.6 |
| 20260503214655 | 81 | 166 | 16.0 | 17.0 | 0.00 | 0.00 | 0.00 | 35 | 1014.7 |
| 20260503214150 | 81 | 154 | 5.0 | 13.0 | 0.00 | 0.00 | 0.00 | 35 | 1014.9 |
| 20260503213650 | 81 | 171 | 6.0 | 13.0 | 0.00 | 0.00 | 0.00 | 35 | 1014.8 |
| 20260503213146 | 81 | 196 | 5.0 | 13.0 | 0.00 | 0.00 | 0.00 | 36 | 1015.2 |
| 20260503212643 | 81 | 172 | 4.0 | 15.0 | 0.00 | 0.00 | 0.00 | 36 | 1015.2 |
| 20260503212141 | 81 | 210 | 5.0 | 12.0 | 0.00 | 0.00 | 0.00 | 32 | 1015.3 |
| 20260503211638 | 81 | 153 | 5.0 | 11.0 | 0.00 | 0.00 | 0.00 | 35 | 1015.2 |
| 20260503211133 | 82 | 181 | 2.0 | 11.0 | 0.00 | 0.00 | 0.00 | 36 | 1015.4 |
| 20260503210630 | 81 | 128 | 5.0 | 14.0 | 0.00 | 0.00 | 0.00 | 34 | 1015.5 |
| 20260503210126 | 81 | 173 | 7.0 | 15.0 | 0.00 | 0.00 | 0.00 | 33 | 1015.5 |
| 20260503205623 | 82 | 186 | 5.0 | 11.0 | 0.00 | 0.00 | 0.00 | 33 | 1015.9 |
| 20260503205119 | 82 | 210 | 5.0 | 15.0 | 0.00 | 0.00 | 0.00 | 32 | 1016.0 |
| 20260503204616 | 82 | 228 | 9.0 | 14.0 | 0.00 | 0.00 | 0.00 | 34 | 1016.0 |
| 20260503204114 | 82 | 211 | 4.0 | 16.0 | 0.00 | 0.00 | 0.00 | 32 | 1016.1 |
| 20260503203610 | 81 | 131 | 5.0 | 11.0 | 0.00 | 0.00 | 0.00 | 36 | 1016.2 |
| 20260503203108 | 81 | 179 | 5.0 | 13.0 | 0.00 | 0.00 | 0.00 | 34 | 1016.1 |
| 20260503202605 | 80 | 135 | 8.0 | 17.0 | 0.00 | 0.00 | 0.00 | 36 | 1016.4 |
| 20260503202103 | 81 | 161 | 3.0 | 11.0 | 0.00 | 0.00 | 0.00 | 35 | 1016.6 |
| 20260503201601 | 82 | 177 | 5.0 | 10.0 | 0.00 | 0.00 | 0.00 | 36 | 1016.9 |
| 20260503201058 | 81 | 204 | 4.0 | 7.0 | 0.00 | 0.00 | 0.00 | 32 | 1016.7 |
| 20260503200554 | 81 | 200 | 5.0 | 9.0 | 0.00 | 0.00 | 0.00 | 34 | 1016.8 |
| 20260503200050 | 82 | 194 | 12.0 | 12.0 | 0.00 | 0.00 | 0.00 | 35 | 1016.7 |
| 20260503195548 | 80 | 237 | 2.0 | 9.0 | 0.00 | 0.00 | 0.00 | 33 | 1016.7 |
| 20260503195044 | 81 | 162 | 3.0 | 11.0 | 0.00 | 0.00 | 0.00 | 33 | 1017.0 |
| 20260503194542 | 81 | 166 | 9.0 | 13.0 | 0.00 | 0.00 | 0.00 | 33 | 1017.1 |
| 20260503194041 | 81 | 219 | 3.0 | 11.0 | 0.00 | 0.00 | 0.00 | 33 | 1016.9 |
| 20260503193538 | 81 | 154 | 5.0 | 13.0 | 0.00 | 0.00 | 0.00 | 34 | 1017.1 |
| 20260503193033 | 81 | 202 | 4.0 | 14.0 | 0.00 | 0.00 | 0.00 | 36 | 1017.2 |
| 20260503192530 | 80 | 166 | 4.0 | 19.0 | 0.00 | 0.00 | 0.00 | 37 | 1017.2 |
| 20260503192026 | 79 | 238 | 4.0 | 6.0 | 0.00 | 0.00 | 0.00 | 40 | 1017.3 |
| 20260503191523 | 80 | 208 | 4.0 | 13.0 | 0.00 | 0.00 | 0.00 | 39 | 1017.5 |
| 20260503191020 | 80 | 194 | 5.0 | 12.0 | 0.00 | 0.00 | 0.00 | 37 | 1017.5 |
| 20260503190516 | 81 | 234 | 7.0 | 14.0 | 0.00 | 0.00 | 0.00 | 37 | 1017.6 |
| 20260503190008 | 81 | 226 | 3.0 | 14.0 | 0.00 | 0.00 | 0.00 | 41 | 1017.8 |
| 20260503185503 | 81 | 192 | 7.0 | 13.0 | 0.00 | 0.00 | 0.00 | 39 | 1017.7 |
| 20260503184958 | 80 | 226 | 4.0 | 13.0 | 0.00 | 0.00 | 0.00 | 34 | 1017.8 |
| 20260503184455 | 81 | 189 | 5.0 | 8.0 | 0.00 | 0.00 | 0.00 | 40 | 1017.9 |
| 20260503183951 | 80 | 158 | 6.0 | 18.0 | 0.00 | 0.00 | 0.00 | 38 | 1017.9 |
| 20260503183448 | 80 | 221 | 5.0 | 15.0 | 0.00 | 0.00 | 0.00 | 40 | 1017.8 |
| 20260503182945 | 80 | 211 | 4.0 | 14.0 | 0.00 | 0.00 | 0.00 | 39 | 1017.9 |
| 20260503182444 | 80 | 265 | 5.0 | 15.0 | 0.00 | 0.00 | 0.00 | 36 | 1018.0 |
| 20260503181941 | 81 | 237 | 3.0 | 9.0 | 0.00 | 0.00 | 0.00 | 38 | 1018.1 |
| 20260503181438 | 80 | 216 | 4.0 | 11.0 | 0.00 | 0.00 | 0.00 | 40 | 1018.1 |
| 20260503180934 | 79 | 177 | 3.0 | 13.0 | 0.00 | 0.00 | 0.00 | 38 | 1018.3 |
| 20260503180432 | 80 | 189 | 13.0 | 13.0 | 0.00 | 0.00 | 0.00 | 39 | 1018.4 |
| 20260503175929 | 79 | 233 | 5.0 | 17.0 | 0.00 | 0.00 | 0.00 | 39 | 1018.6 |
| 20260503175427 | 79 | 218 | 4.0 | 11.0 | 0.00 | 0.00 | 0.00 | 37 | 1018.9 |
| 20260503174922 | 79 | 217 | 7.0 | 14.0 | 0.00 | 0.00 | 0.00 | 39 | 1018.8 |
| 20260503174421 | 79 | 196 | 12.0 | 13.0 | 0.00 | 0.00 | 0.00 | 38 | 1018.7 |
| 20260503173921 | 79 | 271 | 9.0 | 15.0 | 0.00 | 0.00 | 0.00 | 40 | 1018.8 |
| 20260503173417 | 79 | 184 | 9.0 | 13.0 | 0.00 | 0.00 | 0.00 | 42 | 1018.7 |
| 20260503172914 | 78 | 218 | 6.0 | 14.0 | 0.00 | 0.00 | 0.00 | 41 | 1019.2 |
| 20260503172411 | 79 | 218 | 3.0 | 9.0 | 0.00 | 0.00 | 0.00 | 45 | 1019.0 |
| 20260503171907 | 78 | 237 | 5.0 | 9.0 | 0.00 | 0.00 | 0.00 | 45 | 1019.2 |
| 20260503171404 | 78 | 200 | 3.0 | 13.0 | 0.00 | 0.00 | 0.00 | 44 | 1019.3 |
| 20260503170902 | 78 | 241 | 3.0 | 14.0 | 0.00 | 0.00 | 0.00 | 43 | 1019.4 |
| 20260503170358 | 78 | 227 | 8.0 | 13.0 | 0.00 | 0.00 | 0.00 | 43 | 1019.2 |
| 20260503150750 | 72 | 252 | 3.0 | 10.0 | 0.00 | 0.00 | 0.00 | 59 | 1019.9 |
| 20260503150246 | 71 | 248 | 4.0 | 9.0 | 0.00 | 0.00 | 0.00 | 59 | 1019.8 |
| 20260503140211 | 66 | 199 | 2.0 | 8.0 | 0.00 | 0.00 | 0.00 | 70 | 1019.9 |
| 20260503131140 | 61 | 227 | 3.0 | 5.0 | 0.00 | 0.00 | 0.00 | 79 | 1019.8 |
| 20260503130638 | 60 | 205 | 2.0 | 5.0 | 0.00 | 0.00 | 0.00 | 79 | 1019.4 |
| 20260503130135 | 60 | 187 | 3.0 | 5.0 | 0.00 | 0.00 | 0.00 | 79 | 1019.4 |
| 20260503110528 | 54 | 161 | 0.0 | 2.0 | 0.00 | 0.00 | 0.00 | 90 | 1018.6 |
| 20260503090415 | 55 | 183 | 2.0 | 4.0 | 0.00 | 0.00 | 0.00 | 88 | 1018.3 |
| 20260503081341 | 56 | 180 | 1.0 | 3.0 | 0.00 | 0.00 | 0.00 | 88 | 1018.2 |
| 20260503080838 | 55 | 180 | 1.0 | 2.0 | 0.00 | 0.00 | 0.00 | 89 | 1018.0 |
| 20260503080335 | 55 | 174 | 1.0 | 2.0 | 0.00 | 0.00 | 0.00 | 88 | 1018.0 |
| 20260503072805 | 56 | 175 | 1.0 | 2.0 | 0.00 | 0.00 | 0.00 | 88 | 1018.3 |
| 20260503072305 | 56 | 235 | 0.0 | 2.0 | 0.00 | 0.00 | 0.00 | 88 | 1018.6 |
| 20260503071758 | 56 | 157 | 0.0 | 2.0 | 0.00 | 0.00 | 0.00 | 88 | 1018.4 |
| 20260503071256 | 56 | 159 | 0.0 | 2.0 | 0.00 | 0.00 | 0.00 | 88 | 1018.6 |
| 20260503070752 | 56 | 240 | 0.0 | 2.0 | 0.00 | 0.00 | 0.00 | 87 | 1018.4 |
| 20260503070250 | 57 | 172 | 2.0 | 3.0 | 0.00 | 0.00 | 0.00 | 86 | 1018.8 |
| 20260503060209 | 58 | 189 | 2.0 | 3.0 | 0.00 | 0.00 | 0.00 | 82 | 1018.7 |
| 20260503054656 | 59 | 185 | 2.0 | 3.0 | 0.00 | 0.00 | 0.00 | 79 | 1018.5 |
| 20260503054153 | 59 | 169 | 2.0 | 4.0 | 0.00 | 0.00 | 0.00 | 78 | 1018.5 |
| 20260503053651 | 59 | 180 | 2.0 | 4.0 | 0.00 | 0.00 | 0.00 | 78 | 1018.3 |
| 20260503053150 | 59 | 180 | 3.0 | 4.0 | 0.00 | 0.00 | 0.00 | 78 | 1018.6 |
| 20260503052646 | 59 | 185 | 1.0 | 3.0 | 0.00 | 0.00 | 0.00 | 78 | 1018.4 |
| 20260503052142 | 59 | 185 | 2.0 | 4.0 | 0.00 | 0.00 | 0.00 | 77 | 1018.6 |
| 20260503051637 | 59 | 204 | 0.0 | 3.0 | 0.00 | 0.00 | 0.00 | 78 | 1018.3 |
| 20260503051135 | 59 | 184 | 2.0 | 2.0 | 0.00 | 0.00 | 0.00 | 78 | 1018.1 |